Dansville, NY
on Saturday, December 9, 2017

Saturday
       
Previous Day Next Day
Daily Summary
 ActualAverageRecord
Temperature
Mean Temperature °F °C °F °C  
Max Temperature 37°F 3°C 40°F 4°C 68°F 20°C (1966)
Min Temperature 23°F -5°C 24°F -4°C 3°F -16°C (2002)
Degree Days
Heating Degree Days 35    
Moisture
Dew Point 14°F -10°C   
Average Humidity 56    
Maximum Humidity 71    
Minimum Humidity 35    
Precipitation
Precipitation 0.00 in / 0.00 cm in / cm in / cm ()
Wind
Wind Speed 6 mph / 10 km/h   
Max Wind Speed 12 mph / 19 km/h   
Max Gust Speed mph / km/h   
Visibility 10 miles / 16 kilometers   
Events     
Averages and records for this station are not official NWS values.
Key: T is trace of precipitation, MM is missing value
Source: NWS Daily Summary
Seasonal Weather Averages
Time(EST)TemperatureDew PointHumidity Pressure Visibility Wind DirectionWind SpeedGust SpeedPrecipitationEvents Conditions
12:54 AM 27.0°F -2.8°C 12.0°F -11.1°C 53% 29.97 in / 1014.7 hPa 10.0 miles / 16.1 kilometers ESE 9.2 mph / 14.8 km/h - N/A   Overcast
1:54 AM 27.0°F -2.8°C 12.0°F -11.1°C 53% 29.96 in / 1014.5 hPa 10.0 miles / 16.1 kilometers ESE 11.5 mph / 18.5 km/h - N/A   Overcast
2:54 AM 26.1°F -3.3°C 12.0°F -11.1°C 55% 29.96 in / 1014.4 hPa 10.0 miles / 16.1 kilometers SE 9.2 mph / 14.8 km/h - N/A   Mostly Cloudy
3:54 AM 24.1°F -4.4°C 12.0°F -11.1°C 60% 29.95 in / 1014.2 hPa 10.0 miles / 16.1 kilometers SE 6.9 mph / 11.1 km/h - N/A   Clear
4:54 AM 24.1°F -4.4°C 12.0°F -11.1°C 60% 29.96 in / 1014.6 hPa 10.0 miles / 16.1 kilometers ESE 10.4 mph / 16.7 km/h - N/A   Clear
5:54 AM 23.0°F -5.0°C 12.0°F -11.1°C 63% 29.95 in / 1014.2 hPa 10.0 miles / 16.1 kilometers SSE 6.9 mph / 11.1 km/h - N/A   Clear
6:54 AM 23.0°F -5.0°C 12.9°F -10.6°C 65% 29.96 in / 1014.5 hPa 10.0 miles / 16.1 kilometers SSE 8.1 mph / 13.0 km/h - N/A   Partly Cloudy
7:54 AM 23.0°F -5.0°C 12.0°F -11.1°C 63% 29.95 in / 1014.1 hPa 10.0 miles / 16.1 kilometers South 4.6 mph / 7.4 km/h - N/A   Clear
8:54 AM 24.1°F -4.4°C 12.9°F -10.6°C 62% 29.94 in / 1013.6 hPa 10.0 miles / 16.1 kilometers South 6.9 mph / 11.1 km/h - N/A   Clear
9:54 AM 27.0°F -2.8°C 12.9°F -10.6°C 56% 29.91 in / 1012.8 hPa 10.0 miles / 16.1 kilometers SSE 4.6 mph / 7.4 km/h - N/A   Clear
10:54 AM 28.9°F -1.7°C 12.9°F -10.6°C 51% 29.89 in / 1012.1 hPa 10.0 miles / 16.1 kilometers Calm Calm - N/A   Clear
11:54 AM 32.0°F 0.0°C 12.0°F -11.1°C 44% 29.85 in / 1010.8 hPa 10.0 miles / 16.1 kilometers SSE 6.9 mph / 11.1 km/h - N/A   Clear
12:54 PM 35.1°F 1.7°C 12.9°F -10.6°C 40% 29.82 in / 1009.6 hPa 10.0 miles / 16.1 kilometers ESE 6.9 mph / 11.1 km/h - N/A   Clear
1:54 PM 37.0°F 2.8°C 12.0°F -11.1°C 36% 29.78 in / 1008.5 hPa 10.0 miles / 16.1 kilometers ESE 5.8 mph / 9.3 km/h - N/A   Clear
2:54 PM 37.9°F 3.3°C 12.0°F -11.1°C 35% 29.77 in / 1008.0 hPa 10.0 miles / 16.1 kilometers Calm Calm - N/A   Clear
3:54 PM 35.1°F 1.7°C 14.0°F -10.0°C 42% 29.78 in / 1008.4 hPa 10.0 miles / 16.1 kilometers NNW 6.9 mph / 11.1 km/h - N/A   Clear
4:54 PM 30.9°F -0.6°C 14.0°F -10.0°C 50% 29.78 in / 1008.3 hPa 10.0 miles / 16.1 kilometers NW 3.5 mph / 5.6 km/h - N/A   Clear
5:54 PM 25.0°F -3.9°C 14.0°F -10.0°C 63% 29.80 in / 1009.1 hPa 10.0 miles / 16.1 kilometers Calm Calm - N/A   Clear
6:54 PM 28.0°F -2.2°C 16.0°F -8.9°C 61% 29.81 in / 1009.2 hPa 10.0 miles / 16.1 kilometers Calm Calm - N/A   Clear
7:54 PM 26.1°F -3.3°C 18.0°F -7.8°C 71% 29.81 in / 1009.4 hPa 10.0 miles / 16.1 kilometers NW 3.5 mph / 5.6 km/h - N/A   Clear
8:54 PM 27.0°F -2.8°C 16.0°F -8.9°C 63% 29.81 in / 1009.4 hPa 10.0 miles / 16.1 kilometers Calm Calm - N/A   Partly Cloudy
9:54 PM 27.0°F -2.8°C 18.0°F -7.8°C 69% 29.81 in / 1009.3 hPa 10.0 miles / 16.1 kilometers Calm Calm - N/A   Overcast
10:54 PM 27.0°F -2.8°C 17.1°F -8.3°C 66% 29.81 in / 1009.4 hPa 10.0 miles / 16.1 kilometers Calm Calm - N/A   Mostly Cloudy
11:54 PM 27.0°F -2.8°C 18.0°F -7.8°C 69% 29.81 in / 1009.2 hPa 10.0 miles / 16.1 kilometers Calm Calm - N/A   Overcast